(°C)
14°
14°
14°
14°
14°
15°
16°
(°C)
11°
12°
12°
12°
13°
13°
14°
SSO
SSO
SO
SO
OSO
O
O
(km/h)
15-26
15-26
15-25
14-24
14-24
15-25
16-28
(mm)
0
0
0
1
0.7
0
0.6
(%)
0
23
53
80
88
61
73

Élévation du soleil

/ -3.9°
sun-icon
UV 4
04:56
21:48
Gibbeuse décroissante (224°)
23:22
08:48

METAR pour 57.92°N 56.02°E (USPP)

Heure Conditions Température/
Point de rosée
Vent Visibilité Météo Nuages Pression Changement Brut
VFR 14°C / 12°C 230º 12kt >10km - Clouds and Visibility OK 1012 No Significant change. Runway 21: Clear and dry, 51-100% contamination with <1mm, friction coefficient 0.60. USPP 262300Z 23006MPS CAVOK 14/12 Q1012 R21/090060 NOSIG RMK QFE748
VFR 13°C / 12°C 230º 10kt >10km - Few Clouds 1700ft 1012 No Significant change. Runway 21: Clear and dry, 51-100% contamination with <1mm, friction coefficient 0.60. USPP 262230Z 23005MPS 9999 FEW017 13/12 Q1012 R21/090060 NOSIG RMK QFE748
VFR 13°C / 12°C 230º 10kt >10km - Clouds and Visibility OK 1012 No Significant change. Runway 21: Clear and dry, 51-100% contamination with <1mm, friction coefficient 0.60. USPP 262200Z 23005MPS CAVOK 13/12 Q1012 R21/090060 NOSIG RMK QFE749
VFR 13°C / 12°C 230º 10kt >10km - Clouds and Visibility OK 1012 No Significant change. Runway 21: Clear and dry, 51-100% contamination with <1mm, friction coefficient 0.60. USPP 262130Z 23005MPS CAVOK 13/12 Q1012 R21/090060 NOSIG RMK QFE749
VFR 13°C / 12°C 230º 12kt >10km - Clouds and Visibility OK 1013 No Significant change. Runway 21: Clear and dry, 51-100% contamination with <1mm, friction coefficient 0.60. USPP 262100Z 23006MPS CAVOK 13/12 Q1013 R21/090060 NOSIG RMK QFE749
VFR 13°C / 12°C 220º 12kt >10km - Clouds and Visibility OK 1013 No Significant change. Runway 21: Clear and dry, 51-100% contamination with <1mm, friction coefficient 0.60. USPP 262030Z 22006MPS CAVOK 13/12 Q1013 R21/090060 NOSIG RMK QFE749
VFR 13°C / 12°C 220º 10kt >10km - Clouds and Visibility OK 1013 No Significant change. Runway 21: Clear and dry, 51-100% contamination with <1mm, friction coefficient 0.60. USPP 262000Z 22005MPS CAVOK 13/12 Q1013 R21/090060 NOSIG RMK QFE749
VFR 13°C / 12°C 220º 10kt >10km - Clouds and Visibility OK 1014 No Significant change. Runway 21: Clear and dry, 51-100% contamination with <1mm, friction coefficient 0.60. USPP 261930Z 22005MPS CAVOK 13/12 Q1014 R21/090060 NOSIG RMK QFE749
VFR 13°C / 12°C 230º 10kt >10km - Clouds and Visibility OK 1014 No Significant change. Runway 21: Clear and dry, 51-100% contamination with <1mm, friction coefficient 0.60. USPP 261900Z 23005MPS CAVOK 13/12 Q1014 R21/090060 NOSIG RMK QFE750
VFR 13°C / 12°C 220º 10kt >10km - Clouds and Visibility OK 1014 No Significant change. Runway 21: Clear and dry, 51-100% contamination with <1mm, friction coefficient 0.60. USPP 261830Z 22005MPS CAVOK 13/12 Q1014 R21/090060 NOSIG RMK QFE750
VFR 13°C / 12°C 230º 10kt >10km - Clouds and Visibility OK 1014 No Significant change. Runway 21: Clear and dry, 51-100% contamination with <1mm, friction coefficient 0.60. USPP 261800Z 23005MPS CAVOK 13/12 Q1014 R21/090060 NOSIG RMK QFE750
VFR 14°C / 12°C 230º 10kt >10km - Clouds and Visibility OK 1015 No Significant change. Runway 21: Clear and dry, 51-100% contamination with <1mm, friction coefficient 0.60. USPP 261730Z 23005MPS CAVOK 14/12 Q1015 R21/090060 NOSIG RMK QFE750
VFR 15°C / 12°C 220º 10kt >10km - Clouds and Visibility OK 1015 No Significant change. Runway 21: Clear and dry, 51-100% contamination with <1mm, friction coefficient 0.60. USPP 261700Z 22005MPS CAVOK 15/12 Q1015 R21/090060 NOSIG RMK QFE750
VFR 16°C / 12°C 230º 10kt >10km - Clouds and Visibility OK 1015 No Significant change. Runway 21: Clear and dry, 51-100% contamination with <1mm, friction coefficient 0.60. USPP 261630Z 23005MPS CAVOK 16/12 Q1015 R21/090060 NOSIG RMK QFE750
VFR 17°C / 13°C 220º 10kt >10km - Clouds and Visibility OK 1015 No Significant change. Runway 21: Clear and dry, 51-100% contamination with <1mm, friction coefficient 0.60. USPP 261600Z 22005MPS CAVOK 17/13 Q1015 R21/090060 NOSIG RMK QFE750
VFR 18°C / 12°C 210º 10kt >10km - Clouds and Visibility OK 1015 No Significant change. Runway 21: Clear and dry, 51-100% contamination with <1mm, friction coefficient 0.60. USPP 261530Z 21005MPS CAVOK 18/12 Q1015 R21/090060 NOSIG RMK QFE751
VFR 19°C / 12°C 210º 12kt >10km - Clouds and Visibility OK 1015 No Significant change. Runway 21: Clear and dry, 51-100% contamination with <1mm, friction coefficient 0.60. USPP 261500Z 21006MPS CAVOK 19/12 Q1015 R21/090060 NOSIG RMK QFE751
VFR 20°C / 12°C 210º 10kt >10km - Clouds and Visibility OK 1015 No Significant change. Runway 21: Clear and dry, 51-100% contamination with <1mm, friction coefficient 0.60. USPP 261430Z 21005MPS CAVOK 20/12 Q1015 R21/090060 NOSIG RMK QFE751
VFR 20°C / 11°C 220º 10kt >10km - Clouds and Visibility OK 1016 No Significant change. Runway 21: Clear and dry, 51-100% contamination with <1mm, friction coefficient 0.60. USPP 261400Z 22005MPS CAVOK 20/11 Q1016 R21/090060 NOSIG RMK QFE751
VFR 20°C / 11°C 210º 12kt >10km - Clouds and Visibility OK 1016 No Significant change. Runway 21: Clear and dry, 51-100% contamination with <1mm, friction coefficient 0.60. USPP 261330Z 21006MPS CAVOK 20/11 Q1016 R21/090060 NOSIG RMK QFE751
VFR 20°C / 12°C 210º 12kt >10km - Clouds and Visibility OK 1016 No Significant change. Runway 21: Clear and dry, 51-100% contamination with <1mm, friction coefficient 0.60. USPP 261300Z 21006MPS CAVOK 20/12 Q1016 R21/090060 NOSIG RMK QFE751
VFR 20°C / 12°C 220º 14kt >10km - Clouds and Visibility OK 1017 No Significant change. Runway 21: Clear and dry, 51-100% contamination with <1mm, friction coefficient 0.60. USPP 261230Z 22007MPS CAVOK 20/12 Q1017 R21/090060 NOSIG RMK QFE752
VFR 20°C / 12°C 220º 12kt >10km - Clouds and Visibility OK 1017 No Significant change. Runway 21: Clear and dry, 51-100% contamination with <1mm, friction coefficient 0.60. USPP 261200Z 22006MPS CAVOK 20/12 Q1017 R21/090060 NOSIG RMK QFE752
VFR 18°C / 11°C 210º 12kt >10km - Scattered Clouds 5000ft 1017 Temporary: 26005G17MPS Visibility 3000. Light Thunderstorm Rain . Broken Clouds 1600ft. Cumulonimbus RMK QFE752 . Runway 21: Wet or puddles, 51-100% contamination with 1mm, friction coefficient 0.50. USPP 261130Z 21006MPS 9999 SCT050CB 18/11 Q1017 R21/290150 TEMPO 26005G17MPS 3000 -TSRA BKN016CB RMK QFE752

VFR

14°C / 12°C

[Plus]
Vent 230º 12kt
Visibilité >10km
Météo -
Nuages Clouds and Visibility OK
Pression 1012
Changement No Significant change. Runway 21: Clear and dry, 51-100% contamination with <1mm, friction coefficient 0.60.
Brut USPP 262300Z 23006MPS CAVOK 14/12 Q1012 R21/090060 NOSIG RMK QFE748

VFR

13°C / 12°C

[Plus]
Vent 230º 10kt
Visibilité >10km
Météo -
Nuages Few Clouds 1700ft
Pression 1012
Changement No Significant change. Runway 21: Clear and dry, 51-100% contamination with <1mm, friction coefficient 0.60.
Brut USPP 262230Z 23005MPS 9999 FEW017 13/12 Q1012 R21/090060 NOSIG RMK QFE748

VFR

13°C / 12°C

[Plus]
Vent 230º 10kt
Visibilité >10km
Météo -
Nuages Clouds and Visibility OK
Pression 1012
Changement No Significant change. Runway 21: Clear and dry, 51-100% contamination with <1mm, friction coefficient 0.60.
Brut USPP 262200Z 23005MPS CAVOK 13/12 Q1012 R21/090060 NOSIG RMK QFE749

VFR

13°C / 12°C

[Plus]
Vent 230º 10kt
Visibilité >10km
Météo -
Nuages Clouds and Visibility OK
Pression 1012
Changement No Significant change. Runway 21: Clear and dry, 51-100% contamination with <1mm, friction coefficient 0.60.
Brut USPP 262130Z 23005MPS CAVOK 13/12 Q1012 R21/090060 NOSIG RMK QFE749

VFR

13°C / 12°C

[Plus]
Vent 230º 12kt
Visibilité >10km
Météo -
Nuages Clouds and Visibility OK
Pression 1013
Changement No Significant change. Runway 21: Clear and dry, 51-100% contamination with <1mm, friction coefficient 0.60.
Brut USPP 262100Z 23006MPS CAVOK 13/12 Q1013 R21/090060 NOSIG RMK QFE749

VFR

13°C / 12°C

[Plus]
Vent 220º 12kt
Visibilité >10km
Météo -
Nuages Clouds and Visibility OK
Pression 1013
Changement No Significant change. Runway 21: Clear and dry, 51-100% contamination with <1mm, friction coefficient 0.60.
Brut USPP 262030Z 22006MPS CAVOK 13/12 Q1013 R21/090060 NOSIG RMK QFE749

VFR

13°C / 12°C

[Plus]
Vent 220º 10kt
Visibilité >10km
Météo -
Nuages Clouds and Visibility OK
Pression 1013
Changement No Significant change. Runway 21: Clear and dry, 51-100% contamination with <1mm, friction coefficient 0.60.
Brut USPP 262000Z 22005MPS CAVOK 13/12 Q1013 R21/090060 NOSIG RMK QFE749

VFR

13°C / 12°C

[Plus]
Vent 220º 10kt
Visibilité >10km
Météo -
Nuages Clouds and Visibility OK
Pression 1014
Changement No Significant change. Runway 21: Clear and dry, 51-100% contamination with <1mm, friction coefficient 0.60.
Brut USPP 261930Z 22005MPS CAVOK 13/12 Q1014 R21/090060 NOSIG RMK QFE749

VFR

13°C / 12°C

[Plus]
Vent 230º 10kt
Visibilité >10km
Météo -
Nuages Clouds and Visibility OK
Pression 1014
Changement No Significant change. Runway 21: Clear and dry, 51-100% contamination with <1mm, friction coefficient 0.60.
Brut USPP 261900Z 23005MPS CAVOK 13/12 Q1014 R21/090060 NOSIG RMK QFE750

VFR

13°C / 12°C

[Plus]
Vent 220º 10kt
Visibilité >10km
Météo -
Nuages Clouds and Visibility OK
Pression 1014
Changement No Significant change. Runway 21: Clear and dry, 51-100% contamination with <1mm, friction coefficient 0.60.
Brut USPP 261830Z 22005MPS CAVOK 13/12 Q1014 R21/090060 NOSIG RMK QFE750

VFR

13°C / 12°C

[Plus]
Vent 230º 10kt
Visibilité >10km
Météo -
Nuages Clouds and Visibility OK
Pression 1014
Changement No Significant change. Runway 21: Clear and dry, 51-100% contamination with <1mm, friction coefficient 0.60.
Brut USPP 261800Z 23005MPS CAVOK 13/12 Q1014 R21/090060 NOSIG RMK QFE750

VFR

14°C / 12°C

[Plus]
Vent 230º 10kt
Visibilité >10km
Météo -
Nuages Clouds and Visibility OK
Pression 1015
Changement No Significant change. Runway 21: Clear and dry, 51-100% contamination with <1mm, friction coefficient 0.60.
Brut USPP 261730Z 23005MPS CAVOK 14/12 Q1015 R21/090060 NOSIG RMK QFE750

VFR

15°C / 12°C

[Plus]
Vent 220º 10kt
Visibilité >10km
Météo -
Nuages Clouds and Visibility OK
Pression 1015
Changement No Significant change. Runway 21: Clear and dry, 51-100% contamination with <1mm, friction coefficient 0.60.
Brut USPP 261700Z 22005MPS CAVOK 15/12 Q1015 R21/090060 NOSIG RMK QFE750

VFR

16°C / 12°C

[Plus]
Vent 230º 10kt
Visibilité >10km
Météo -
Nuages Clouds and Visibility OK
Pression 1015
Changement No Significant change. Runway 21: Clear and dry, 51-100% contamination with <1mm, friction coefficient 0.60.
Brut USPP 261630Z 23005MPS CAVOK 16/12 Q1015 R21/090060 NOSIG RMK QFE750

VFR

17°C / 13°C

[Plus]
Vent 220º 10kt
Visibilité >10km
Météo -
Nuages Clouds and Visibility OK
Pression 1015
Changement No Significant change. Runway 21: Clear and dry, 51-100% contamination with <1mm, friction coefficient 0.60.
Brut USPP 261600Z 22005MPS CAVOK 17/13 Q1015 R21/090060 NOSIG RMK QFE750

VFR

18°C / 12°C

[Plus]
Vent 210º 10kt
Visibilité >10km
Météo -
Nuages Clouds and Visibility OK
Pression 1015
Changement No Significant change. Runway 21: Clear and dry, 51-100% contamination with <1mm, friction coefficient 0.60.
Brut USPP 261530Z 21005MPS CAVOK 18/12 Q1015 R21/090060 NOSIG RMK QFE751

VFR

19°C / 12°C

[Plus]
Vent 210º 12kt
Visibilité >10km
Météo -
Nuages Clouds and Visibility OK
Pression 1015
Changement No Significant change. Runway 21: Clear and dry, 51-100% contamination with <1mm, friction coefficient 0.60.
Brut USPP 261500Z 21006MPS CAVOK 19/12 Q1015 R21/090060 NOSIG RMK QFE751

VFR

20°C / 12°C

[Plus]
Vent 210º 10kt
Visibilité >10km
Météo -
Nuages Clouds and Visibility OK
Pression 1015
Changement No Significant change. Runway 21: Clear and dry, 51-100% contamination with <1mm, friction coefficient 0.60.
Brut USPP 261430Z 21005MPS CAVOK 20/12 Q1015 R21/090060 NOSIG RMK QFE751

VFR

20°C / 11°C

[Plus]
Vent 220º 10kt
Visibilité >10km
Météo -
Nuages Clouds and Visibility OK
Pression 1016
Changement No Significant change. Runway 21: Clear and dry, 51-100% contamination with <1mm, friction coefficient 0.60.
Brut USPP 261400Z 22005MPS CAVOK 20/11 Q1016 R21/090060 NOSIG RMK QFE751

VFR

20°C / 11°C

[Plus]
Vent 210º 12kt
Visibilité >10km
Météo -
Nuages Clouds and Visibility OK
Pression 1016
Changement No Significant change. Runway 21: Clear and dry, 51-100% contamination with <1mm, friction coefficient 0.60.
Brut USPP 261330Z 21006MPS CAVOK 20/11 Q1016 R21/090060 NOSIG RMK QFE751

VFR

20°C / 12°C

[Plus]
Vent 210º 12kt
Visibilité >10km
Météo -
Nuages Clouds and Visibility OK
Pression 1016
Changement No Significant change. Runway 21: Clear and dry, 51-100% contamination with <1mm, friction coefficient 0.60.
Brut USPP 261300Z 21006MPS CAVOK 20/12 Q1016 R21/090060 NOSIG RMK QFE751

VFR

20°C / 12°C

[Plus]
Vent 220º 14kt
Visibilité >10km
Météo -
Nuages Clouds and Visibility OK
Pression 1017
Changement No Significant change. Runway 21: Clear and dry, 51-100% contamination with <1mm, friction coefficient 0.60.
Brut USPP 261230Z 22007MPS CAVOK 20/12 Q1017 R21/090060 NOSIG RMK QFE752

VFR

20°C / 12°C

[Plus]
Vent 220º 12kt
Visibilité >10km
Météo -
Nuages Clouds and Visibility OK
Pression 1017
Changement No Significant change. Runway 21: Clear and dry, 51-100% contamination with <1mm, friction coefficient 0.60.
Brut USPP 261200Z 22006MPS CAVOK 20/12 Q1017 R21/090060 NOSIG RMK QFE752

VFR

18°C / 11°C

[Plus]
Vent 210º 12kt
Visibilité >10km
Météo -
Nuages Scattered Clouds 5000ft
Pression 1017
Changement Temporary: 26005G17MPS Visibility 3000. Light Thunderstorm Rain . Broken Clouds 1600ft. Cumulonimbus RMK QFE752 . Runway 21: Wet or puddles, 51-100% contamination with 1mm, friction coefficient 0.50.
Brut USPP 261130Z 21006MPS 9999 SCT050CB 18/11 Q1017 R21/290150 TEMPO 26005G17MPS 3000 -TSRA BKN016CB RMK QFE752

TAF pour 57.92°N 56.02°E (USPP)

From till


From till Wind 240º 6kt. Gust 29kt. Visibility 6000m. Broken Clouds 1600ft.
Temporarly from till Light Thunderstorm Rain .
Becoming from till Wind 300º 6kt. Gust 27kt. Visibility 6000m. Broken Clouds 1600ft.
Becoming from till Wind 300º 6kt. Gust 27kt. Visibility 10km or more. Broken Clouds 2000ft.

Brut: TAF USPP 261956Z 2621/2721 24003G15MPS 6000 BKN016CB TEMPO 2621/2707 -TSRA BECMG 2704/2706 30003G14MPS BECMG 2712/2714 9999 BKN020

Les images satellites et les pluies actuelles pour 57.92°N 56.02°E

Le marqueur de lieu est placé sur 57.92°N 56.02°E. [Plus]

L'image satellite en temps réel combine la lumière visible pendant la journée et le rayonnement infrarouge pendant la nuit. La nuit, l'image n'est pas sombre car le rayonnement infrarouge permet de détecter les différences de température. Malheureusement, les nuages bas et le brouillard sont difficiles à distinguer des températures au sol et peuvent donc être presque invisibles pendant la nuit. Les images des satellites Météosat pour l'Europe sont mises à jour en temps réel toutes les 5 minutes. Les images GOES-16/GOES-17 (Amérique du Nord et du Sud) et Himawari (Asie) sont mises à jour toutes les 10 minutes.

Copyright 2021 EUMETSAT / meteoblue. / Copyright 2021 meteoblue

Radar et prévision de précipitation à courte échéance pour 57.92°N 56.02°E

Bruine
Légère
Modéré
Fort
Très fort
Grêle

Le marqueur de position est placé sur 57.92°N 56.02°E. Cette animation montre le Radar des précipitations pour les dernières heures, ainsi qu'une 1h prévision. La bruine ou les légères chutes de neiges peuvent ne pas être détectées par le radar. L'intensité des précipitations est visible avec un code couleur allant du bleu clair au violet foncé.